Regional Weather Roundup
Issued by NWS

Home | Current Version | Previous Version | Graphics & Text | Print | Product List | Glossary On
Versions: 1 2 3 4 5 6 7 8 9 10 11 12 13 14 15 16 17 18 19 20 21 22 23 24 25 26 27 28 29 30 31 32 33 34 35 36 37 38 39 40 41 42 43 44 45 46 47 48 49 50
000
ASUS43 KIND 200409
RWRIN

WEATHER ROUNDUP FOR INDIANA
NATIONAL WEATHER SERVICE INDIANAPOLIS IN
1200 AM EDT WED AUG 20 2014

NOTE: "FAIR" INDICATES FEW OR NO CLOUDS BELOW 12,000 FEET WITH NO
SIGNIFICANT WEATHER AND/OR OBSTRUCTIONS TO VISIBILITY.

* - STATION DOES NOT REPORT WEATHER SUCH AS PRECIPITATION OR FOG.

+ - STATION NOT QUALITY CONTROLLED BY THE NATIONAL WEATHER SERVICE.
    USE DATA WITH CAUTION...ESPECIALLY DEWPOINT AND RELATIVE
    HUMIDITY OBSERVATIONS.

INZ001>003-010>013-019-020-200500-
NORTHWEST INDIANA

CITY           SKY/WX    TMP DP  RH WIND       PRES   REMARKS
GARY /AIRPORT/ CLEAR     75  69  79 SW3       29.78R
KNOX *+        CLEAR     67  64  89 S6        29.78S
LA PORTE +     PTCLDY    67  67  98 SW6       29.79S
MICHIGAN CITY+ PTCLDY    72  64  78 N3        29.79R
MONTICELLO +   CLEAR     66  64  95 S6        29.81R
RENSSELAER +   CLEAR     66  66 100 CALM      29.81R
VALPARAISO     PTCLDY    69  65  86 SW6       29.79R

$$

LMZ046-743>745-200500-
SOUTHERN LAKE MICHIGAN

STATION/POSITION TIME  TEMP WIND        PRES
                       AIR  DIR/SP/G
                 (UTC) (F)  (DEG/KT/KT) (MB)
BURNS HARBOR     0400   75  220/  7/ 12   N/A
MICHIGAN CITY    0400   74  250/  9/ 11   N/A

$$

INZ004-005-014>016-021>024-200500-
NORTH CENTRAL INDIANA

CITY           SKY/WX    TMP DP  RH WIND       PRES   REMARKS
GOSHEN         MOCLDY    71  66  84 S8        29.79F
LOGANSPORT +   PTCLDY    66  63  88 SW7       29.82F
PERU/GRISSOM   PTCLDY    67  67 100 S6        29.81S
ROCHESTER +    CLEAR     68  64  88 SW8       29.81S
SOUTH BEND     MOCLDY    71  65  81 W3        29.79R
WARSAW +       MOCLDY    70  68  94 CALM      29.79F

$$

INZ006>009-017-018-025>027-200500-
NORTHEAST INDIANA

CITY           SKY/WX    TMP DP  RH WIND       PRES   REMARKS
ANGOLA *+      PTCLDY    68  59  73 S5        29.81R
AUBURN +       CLOUDY    70  64  83 CALM      29.81F
FORT WAYNE     CLOUDY    70  68  93 S3        29.81F
HUNTINGTON +   CLOUDY    69  67  95 SW3       29.81S

$$

INZ028-029-035-036-043>045-051>053-200500-
WEST CENTRAL INDIANA

CITY           SKY/WX    TMP DP  RH WIND       PRES   REMARKS
GREENCASTLE +  LGT RAIN  64  64 100 S7        29.85F
LAFAYETTE      CLEAR     66  64  93 NW3       29.82R
TERRE HAUTE    PTCLDY    72  69  90 E3        29.83R

$$

INZ030>032-037>040-046>048-054>057-064-065-200500-
CENTRAL INDIANA

CITY           SKY/WX    TMP DP  RH WIND       PRES   REMARKS
CP ATTERBURY + MOCLDY    72  70  94 NW9       29.85S THUNDER FOG
INDIANAPOLIS   TSTM      68  63  84 W7        29.84F
-EAGLE CREEK   CLOUDY    66  62  87 S6        29.85R
KOKOMO *+      MOCLDY    66  37  34 SW7       29.82S
MARION +       CLOUDY    67  66  95 SW5       29.83S
MT COMFORT *+  CLOUDY    68  64  88 CALM      29.84F
SHELBYVILLE    TSTM      70  65  84 W15       29.87R
ZIONSVILLE +   CLOUDY    70  66  87 W3        29.84F

$$

INZ033-034-041-042-049-050-058-059-200500-
EAST CENTRAL INDIANA

CITY           SKY/WX    TMP DP  RH WIND       PRES   REMARKS
MUNCIE         CLOUDY    71  66  84 W8        29.84S

$$

INZ060-061-067>069-081>083-085>088-200500-
SOUTHWEST INDIANA

CITY           SKY/WX    TMP DP  RH WIND       PRES   REMARKS
EVANSVILLE     CLEAR     78  70  76 W5        29.84S
WASHINGTON +   CLEAR     77  76  97 SW7       29.82F

$$

INZ062-063-066-070>080-084-089>092-200500-
SOUTH CENTRAL AND SOUTHEAST INDIANA

CITY           SKY/WX    TMP DP  RH WIND       PRES   REMARKS
BEDFORD +      PTCLDY    73  70  88 CALM      29.84  FOG
BLOOMINGTON    PTCLDY    74  72  93 CALM      29.84R
NORTH VERNON + LGT RAIN  75  75 100 CALM      29.84

$$



USA.gov is the U.S. government's official web portal to all federal, state and local government web resources and services.